Home > Weather > Ilanz > Past weeks

Flag for Switzerland Past Weather in Ilanz, Graubünden, Switzerland — Yesterday and Last 2 Weeks

Now
58 °F

Cool.


Feels Like: 58 °F
Forecast: 44 / 74 °F
Wind: 1 mph from Northeast

Location: Chur

Current Time: May 26, 2016 at 12:58:38 AM

Latest Report: May 26, 2016 at 12:00 AM


Visibility: N/A

Pressure: 29.98 "Hg (27.58 "Hg at 703m altitude)

Humidity: 70%

Dew Point: 49 °F

Location of IlanzLocation

Past Weather in Ilanz — Graph

°F

Ilanz Temperature Yesterday

Maximum temperature yesterday: 71 °F (at 5:00 PM)
Minimum temperature yesterday: 46 °F (at 4:40 AM)
Average temperature yesterday: 58 °F

High & Low Weather Summary for the Past Weeks

 TemperatureHumidityPressure
High78 °F (May 22, 2:00 PM)96% (May 13, 2:00 AM)30.21 "Hg (May 13, 2:00 AM)
Low43 °F (May 16, 6:00 AM)25% (May 22, 6:00 PM)29.44 "Hg (May 12, 4:00 AM)
Average55 °F69%29.91 "Hg
* Reported May 10 11:00 PM — May 25 11:00 PM, Ilanz, Weather by CustomWeather, © 2016

Note: Actual official high and low records may vary slightly from our data, if they occured in-between our weather recording intervals... More about our weather records

Advertising

Ilanz Weather History for the Previous 24 Hours

Scroll right to see more
 ConditionsComfort  
Time TempWeatherWind HumidityBarometerVisibility
11:00 PM
Wed, May 25
60 °FPassing clouds.5 mph63%29.96 "Hg16 mi
10:00 PM63 °FMild.6 mph56%29.94 "HgN/A
9:00 PM63 °FMild.6 mph55%29.91 "HgN/A
8:00 PM65 °FMild.9 mph52%29.88 "HgN/A
7:00 PM67 °FMild.15 mph47%29.84 "HgN/A
6:00 PM69 °FMild.13 mph51%29.82 "HgN/A
5:00 PM71 °FMild.12 mph47%29.82 "HgN/A
4:00 PM70 °FMild.16 mph47%29.83 "HgN/A
3:00 PM71 °FMild.14 mph49%29.82 "HgN/A
2:00 PM70 °FPassing clouds.12 mph52%29.83 "Hg16 mi
1:00 PM67 °FMild.12 mph52%29.84 "HgN/A
12:00 PM68 °FMild.7 mph47%29.86 "HgN/A
11:00 AM63 °FPassing clouds.2 mph50%29.89 "Hg19 mi
9:00 AM56 °FCool.8 mph63%29.95 "HgN/A
8:00 AM52 °FPassing clouds.8 mph70%29.96 "Hg16 mi
7:00 AM46 °FCool.3 mph83%29.99 "HgN/A
6:00 AM46 °FCool.1 mph89%29.99 "HgN/A
5:00 AM47 °FPassing clouds.5 mph86%29.98 "Hg12 mi
4:40 AM46 °FPassing clouds.3 mph90%29.99 "Hg12 mi
4:00 AM47 °FCool.7 mph88%29.98 "HgN/A
3:00 AM46 °FCool.1 mph93%30.00 "HgN/A
2:00 AM47 °FHaze.1 mph90%30.00 "Hg1 mi
1:00 AM49 °FCool.1 mph89%29.99 "HgN/A
12:00 AM50 °FCool.1 mph89%29.98 "HgN/A
Weather by CustomWeather, © 2016

See weather overviewHow to use our weather pages